Location: Stara Lesna
(49.1528°N, 20.2911°E)
Time: 03:40:00
(UTC+02:00)

Unknown - Pass Details

Date: 21 September 2019
Orbit: 549 x 550 km, 53.0° (Epoch: 13 October)

Event Time Altitude Azimuth Distance (km) Brightness Sun altitude
Exits shadow 05:43:35 - 277° (W) 1,963 5.8 -7.3°
Reaches altitude 10° 05:43:57 10° 278° (W) 1,826 5.7 -7.2°
Maximum altitude 05:47:59 50° 355° (N) 711 4.2 -6.6°
Drops below altitude 10° 05:52:02 10° 71° (ENE) 1,828 8.0 -5.9°
Sets 05:54:20 0° 77° (ENE) 2,723 9.9 -5.5°
